Albuquerque, NM

8:05 PM MDT on June 25, 2017 (GMT -0600)
Albuquerque International Sunport

Weather History for KABQ - December, 2011

Change the Weather History Date:

Tuesday, December 6, 2011

  Actual Average Record
Temperature  
Mean Temperature 20 °F 38 °F  
Max Temperature 30 °F 47 °F 69 °F (1901)
Min Temperature 9 °F 28 °F 9 °F (2011)
Degree Days  
Heating Degree Days 45 27  
Month to date heating degree days 206 160  
Since 1 July heating degree days 964 1027  
Cooling Degree Days 0 0  
Month to date cooling degree days 0 0  
Year to date cooling degree days 1716 1322  
Moisture  
Dew Point 7 °F    
Average Humidity 60    
Maximum Humidity 80    
Minimum Humidity 39    
Precipitation  
Precipitation T in 0.02 in 0.22 in (1986)
Month to date precipitation 0.13 0.11  
Year to date precipitation 3.65 9.06  
Snow  
Snow T in - - ()
Month to date snowfall 1.1  
Since 1 July snowfall 1.1  
Snow Depth 0.00 in    
Sea Level Pressure  
Sea Level Pressure 30.40 in    
Wind  
Wind Speed 5 mph (NNW)    
Max Wind Speed 16 mph    
Max Gust Speed 22 mph    
Visibility 10 miles    
Events Snow    
T = Trace of Precipitation, MM = Missing Value Source: NWS Daily Summary

Daily Weather History Graph

Daily Weather History Graph

Search for Another Location

Airport or City:

Trip Planner

Search our weather history database for the weather conditions in past years. The results will help you decide how hot, cold, wet, or windy it might be!

Date:

Astronomy

Dec. 06, 2011 Rise Set
Actual Time 7:00 AM MST 4:54 PM MST
Civil Twilight 6:32 AM MST 5:22 PM MST
Nautical Twilight 6:00 AM MST 5:53 PM MST
Astronomical Twilight 5:30 AM MST 6:24 PM MST
Moon 2:19 PM MST (12/6) 3:26 AM MST (12/6)
Length of Visible Light 10h 50m
Length of Day
9h 54m
Waxing Gibbous, 87% of the Moon is Illuminated
Dec 6
Waxing Gibbous
Dec 10
Full
Dec 17
Last Quarter
Dec 24
New
Dec 31
First Quarter

Hourly Weather History & Observations

Time (MST) Temp. Windchill Dew Point Humidity Pressure Visibility Wind Dir Wind Speed Gust Speed Precip Events Conditions
12:56 AM 14.0 °F - 5.0 °F 67% 30.40 in 10.0 mi Calm Calm - N/A   Scattered Clouds
1:56 AM 12.9 °F - 5.0 °F 71% 30.40 in 10.0 mi Calm Calm - N/A   Scattered Clouds
2:49 AM 12.2 °F 6.1 °F 5.0 °F 73% 30.24 in 10.0 mi North 3.5 mph - N/A   Overcast
2:56 AM 12.0 °F - 5.0 °F 73% 30.40 in 10.0 mi Calm Calm - N/A   Mostly Cloudy
3:56 AM 12.0 °F - 5.0 °F 73% 30.38 in 10.0 mi Calm Calm - N/A   Mostly Cloudy
4:56 AM 9.0 °F -0.9 °F 3.9 °F 80% 30.40 in 10.0 mi NNE 5.8 mph - N/A   Scattered Clouds
5:56 AM 10.0 °F 3.6 °F 3.9 °F 76% 30.41 in 10.0 mi WNW 3.5 mph - N/A   Mostly Cloudy
6:56 AM 10.9 °F - 5.0 °F 77% 30.42 in 5.0 mi Calm Calm - 0.00 in Snow Light Snow
7:56 AM 10.9 °F 4.7 °F 6.1 °F 81% 30.43 in 10.0 mi South 3.5 mph - 0.00 in   Scattered Clouds
8:56 AM 12.9 °F - 6.1 °F 74% 30.44 in 10.0 mi Calm Calm - N/A   Scattered Clouds
9:56 AM 16.0 °F - 8.1 °F 71% 30.45 in 10.0 mi Calm Calm - N/A   Partly Cloudy
10:56 AM 19.0 °F - 9.0 °F 65% 30.44 in 10.0 mi Calm Calm - N/A   Partly Cloudy
11:56 AM 24.1 °F 17.0 °F 7.0 °F 48% 30.39 in 10.0 mi West 5.8 mph - N/A   Partly Cloudy
12:56 PM 24.1 °F 17.0 °F 10.0 °F 55% 30.38 in 10.0 mi WSW 5.8 mph - N/A   Partly Cloudy
1:56 PM 27.0 °F 19.5 °F 10.0 °F 49% 30.35 in 10.0 mi WNW 6.9 mph - N/A   Partly Cloudy
2:56 PM 28.9 °F 19.8 °F 7.0 °F 40% 30.34 in 10.0 mi NNW 10.4 mph - N/A   Clear
3:56 PM 28.9 °F 20.4 °F 9.0 °F 43% 30.35 in 10.0 mi North 9.2 mph - N/A   Clear
4:56 PM 28.0 °F 17.5 °F 7.0 °F 41% 30.38 in 10.0 mi North 12.7 mph - N/A   Clear
5:56 PM 27.0 °F 15.6 °F 7.0 °F 43% 30.40 in 10.0 mi North 13.8 mph 21.9 mph N/A   Clear
6:56 PM 25.0 °F 16.3 °F 8.1 °F 49% 30.43 in 10.0 mi NW 8.1 mph - N/A   Clear
7:56 PM 25.0 °F 16.3 °F 9.0 °F 51% 30.44 in 10.0 mi NNW 8.1 mph - N/A   Clear
8:56 PM 26.1 °F 15.6 °F 8.1 °F 47% 30.44 in 10.0 mi NNW 11.5 mph - N/A   Clear
9:56 PM 25.0 °F 14.2 °F 9.0 °F 51% 30.43 in 10.0 mi NNW 11.5 mph - N/A   Clear
10:56 PM 24.1 °F 14.4 °F 9.0 °F 53% 30.43 in 10.0 mi North 9.2 mph - N/A   Clear
11:56 PM 19.9 °F 14.9 °F 9.0 °F 62% 30.45 in 10.0 mi SE 3.5 mph - N/A   Clear